IGO1066 VTBS-VEBS

Flight info

Callsign IGO1066
Flight time 2h 35m
Altitude 36000
Route VTBS/19 TARED G463 BETNO N895 BOLUS
Aircraft A320/M-SDE3FGHIRWY/LB1

Departure

Time 2026-05-07 13:17
Airport Suvarnabhumi Airport (VTBS)

Arrival

Time 2026-05-07 15:52
Airport Biju Patnaik International Airport (VEBS)
Time Latitude Longitude Altitude Speed Heading
2026-05-07 12:47 13.68055 100.75216 9 ft 0 kts 11°
2026-05-07 13:04 13.68037 100.75212 10 ft 4 kts 12°
2026-05-07 13:04 13.68011 100.75206 10 ft 4 kts 16°
2026-05-07 13:04 13.67985 100.75197 10 ft 4 kts 22°
2026-05-07 13:04 13.67961 100.75185 11 ft 4 kts 38°
2026-05-07 13:05 13.67946 100.75167 10 ft 4 kts 93°
2026-05-07 13:05 13.67948 100.75158 9 ft 0 kts 104°
2026-05-07 13:08 13.67945 100.75168 10 ft 4 kts 104°
2026-05-07 13:08 13.67936 100.75204 9 ft 6 kts 104°
2026-05-07 13:08 13.67922 100.75258 10 ft 9 kts 104°
2026-05-07 13:09 13.67904 100.75330 8 ft 12 kts 104°
2026-05-07 13:09 13.67883 100.75419 10 ft 13 kts 99°
2026-05-07 13:09 13.67897 100.75469 9 ft 3 kts 47°
2026-05-07 13:09 13.67926 100.75483 8 ft 6 kts 12°
2026-05-07 13:10 13.67976 100.75494 8 ft 9 kts 12°
2026-05-07 13:10 13.68043 100.75514 8 ft 11 kts 15°
2026-05-07 13:10 13.68108 100.75559 8 ft 12 kts 75°
2026-05-07 13:10 13.68137 100.75642 8 ft 13 kts 27°
2026-05-07 13:11 13.68234 100.75666 8 ft 15 kts 13°
2026-05-07 13:11 13.68343 100.75694 9 ft 17 kts 15°
2026-05-07 13:11 13.68465 100.75727 9 ft 19 kts 14°
2026-05-07 13:11 13.68599 100.75762 9 ft 21 kts 14°
2026-05-07 13:12 13.68745 100.75801 9 ft 22 kts 14°
2026-05-07 13:12 13.68894 100.75841 8 ft 23 kts 15°
2026-05-07 13:12 13.69015 100.75873 8 ft 16 kts 14°
2026-05-07 13:12 13.69131 100.75904 8 ft 18 kts 14°
2026-05-07 13:13 13.69204 100.75956 7 ft 14 kts 73°
2026-05-07 13:13 13.69201 100.75985 7 ft 0 kts 104°
2026-05-07 13:15 13.69201 100.75986 7 ft 1 kts 104°
2026-05-07 13:15 13.69197 100.76002 7 ft 6 kts 104°
2026-05-07 13:15 13.69161 100.76060 7 ft 12 kts 149°
2026-05-07 13:15 13.69079 100.76078 7 ft 13 kts 191°
2026-05-07 13:16 13.68933 100.76040 10 ft 48 kts 194°
2026-05-07 13:16 13.68374 100.75898 9 ft 115 kts 193°
2026-05-07 13:16 13.67428 100.75649 9 ft 163 kts 193°
2026-05-07 13:16 13.66221 100.75365 304 ft 182 kts 191°
2026-05-07 13:17 13.64988 100.75038 1008 ft 183 kts 194°
2026-05-07 13:17 13.63699 100.74840 1551 ft 197 kts 181°
2026-05-07 13:17 13.62246 100.74875 1904 ft 219 kts 177°
2026-05-07 13:17 13.60686 100.74975 2506 ft 229 kts 172°
2026-05-07 13:18 13.59077 100.75351 2987 ft 249 kts 163°
2026-05-07 13:18 13.57365 100.75895 3546 ft 263 kts 160°
2026-05-07 13:18 13.55613 100.76489 4374 ft 268 kts 159°
2026-05-07 13:18 13.53830 100.77078 5216 ft 271 kts 160°
2026-05-07 13:19 13.52006 100.77654 5722 ft 276 kts 160°
2026-05-07 13:19 13.50169 100.78204 6477 ft 279 kts 163°
2026-05-07 13:19 13.48415 100.78458 7183 ft 285 kts 176°
2026-05-07 13:19 13.47143 100.78365 7671 ft 290 kts 188°
2026-05-07 13:20 13.45235 100.77645 8418 ft 299 kts 211°
2026-05-07 13:20 13.43744 100.76155 9186 ft 304 kts 237°
2026-05-07 13:20 13.42969 100.74126 9674 ft 310 kts 263°
2026-05-07 13:20 13.43141 100.71951 9788 ft 313 kts 285°
2026-05-07 13:21 13.43738 100.69692 9805 ft 342 kts 285°
2026-05-07 13:21 13.44370 100.67279 9808 ft 355 kts 285°
2026-05-07 13:21 13.44993 100.64841 9806 ft 351 kts 285°
2026-05-07 13:21 13.45677 100.62400 9805 ft 357 kts 292°
2026-05-07 13:22 13.46918 100.60199 9808 ft 358 kts 310°
2026-05-07 13:22 13.48742 100.58489 9805 ft 354 kts 329°
2026-05-07 13:22 13.50964 100.57437 9805 ft 351 kts 346°
2026-05-07 13:22 13.53370 100.57112 9804 ft 349 kts
2026-05-07 13:23 13.55777 100.57181 9805 ft 345 kts
2026-05-07 13:23 13.58171 100.57248 9801 ft 345 kts
2026-05-07 13:23 13.60563 100.57311 9801 ft 343 kts
2026-05-07 13:23 13.62949 100.57372 9806 ft 341 kts
2026-05-07 13:24 13.65326 100.57430 9817 ft 343 kts
2026-05-07 13:24 13.67715 100.57488 9948 ft 348 kts
2026-05-07 13:24 13.70153 100.57553 10507 ft 352 kts
2026-05-07 13:24 13.72614 100.57619 11114 ft 356 kts
2026-05-07 13:25 13.75099 100.57661 11712 ft 359 kts 360°
2026-05-07 13:25 13.77589 100.57298 12316 ft 365 kts 347°
2026-05-07 13:25 13.79981 100.56386 12891 ft 370 kts 334°
2026-05-07 13:25 13.82209 100.55033 13476 ft 373 kts 330°
2026-05-07 13:26 13.84430 100.53629 14006 ft 376 kts 330°
2026-05-07 13:26 13.86644 100.52232 14482 ft 380 kts 330°
2026-05-07 13:26 13.88910 100.50809 14992 ft 383 kts 330°
2026-05-07 13:26 13.91087 100.49209 15477 ft 387 kts 319°
2026-05-07 13:27 13.92893 100.47139 15980 ft 391 kts 306°
2026-05-07 13:27 13.94227 100.44682 16432 ft 396 kts 293°
2026-05-07 13:27 13.95010 100.41949 16877 ft 401 kts 279°
2026-05-07 13:27 13.95405 100.39107 17397 ft 402 kts 278°
2026-05-07 13:28 13.95800 100.36242 17897 ft 405 kts 278°
2026-05-07 13:28 13.96202 100.33371 18353 ft 407 kts 278°
2026-05-07 13:28 13.96612 100.30476 18722 ft 411 kts 278°
2026-05-07 13:28 13.97033 100.27557 19109 ft 414 kts 280°
2026-05-07 13:29 13.97763 100.24683 19506 ft 417 kts 290°
2026-05-07 13:29 13.98979 100.21976 19926 ft 418 kts 301°
2026-05-07 13:29 14.00562 100.19457 20303 ft 421 kts 304°
2026-05-07 13:29 14.02193 100.16948 20747 ft 422 kts 304°
2026-05-07 13:30 14.03830 100.14426 21151 ft 425 kts 304°
2026-05-07 13:30 14.05475 100.11888 21542 ft 427 kts 304°
2026-05-07 13:30 14.07130 100.09336 21920 ft 430 kts 304°
2026-05-07 13:30 14.08799 100.06765 22282 ft 433 kts 304°
2026-05-07 13:31 14.10477 100.04182 22639 ft 435 kts 304°
2026-05-07 13:31 14.12165 100.01583 23002 ft 438 kts 304°
2026-05-07 13:31 14.13859 99.98968 23355 ft 440 kts 304°
2026-05-07 13:31 14.15559 99.96338 23630 ft 442 kts 304°
2026-05-07 13:32 14.17270 99.93691 23921 ft 444 kts 304°
2026-05-07 13:32 14.18988 99.91035 24223 ft 446 kts 304°
2026-05-07 13:32 14.20710 99.88372 24529 ft 448 kts 304°
2026-05-07 13:32 14.22439 99.85693 24823 ft 450 kts 304°
2026-05-07 13:33 14.24174 99.83005 25130 ft 451 kts 304°
2026-05-07 13:33 14.25914 99.80311 25444 ft 453 kts 304°
2026-05-07 13:33 14.27664 99.77607 25722 ft 454 kts 304°
2026-05-07 13:33 14.29422 99.74889 26012 ft 456 kts 304°
2026-05-07 13:34 14.31184 99.72166 26274 ft 458 kts 304°
2026-05-07 13:34 14.34730 99.66676 26852 ft 461 kts 304°
2026-05-07 13:34 14.36508 99.63913 27127 ft 463 kts 304°
2026-05-07 13:35 14.38289 99.61143 27408 ft 465 kts 304°
2026-05-07 13:35 14.40078 99.58359 27717 ft 465 kts 304°
2026-05-07 13:35 14.41867 99.55574 28015 ft 467 kts 304°
2026-05-07 13:35 14.43657 99.52775 28311 ft 469 kts 302°
2026-05-07 13:36 14.45225 99.49816 28582 ft 471 kts 298°
2026-05-07 13:36 14.46743 99.46816 28860 ft 473 kts 298°
2026-05-07 13:36 14.48266 99.43799 29115 ft 475 kts 298°
2026-05-07 13:36 14.49792 99.40772 29389 ft 477 kts 298°
2026-05-07 13:37 14.51319 99.37734 29792 ft 476 kts 298°
2026-05-07 13:37 14.52841 99.34709 30146 ft 475 kts 298°
2026-05-07 13:37 14.54363 99.31690 30514 ft 474 kts 298°
2026-05-07 13:37 14.55883 99.28677 30873 ft 473 kts 298°
2026-05-07 13:38 14.57401 99.25670 31245 ft 472 kts 298°
2026-05-07 13:38 14.58914 99.22671 31640 ft 470 kts 298°
2026-05-07 13:38 14.60400 99.19723 32000 ft 469 kts 298°
2026-05-07 13:38 14.61923 99.16696 32367 ft 468 kts 298°
2026-05-07 13:39 14.63421 99.13709 32741 ft 468 kts 298°
2026-05-07 13:39 14.64917 99.10724 33084 ft 468 kts 298°
2026-05-07 13:39 14.66413 99.07746 33506 ft 466 kts 298°
2026-05-07 13:39 14.67903 99.04785 33912 ft 464 kts 298°
2026-05-07 13:40 14.69388 99.01832 34264 ft 462 kts 298°
2026-05-07 13:40 14.70867 98.98893 34622 ft 460 kts 298°
2026-05-07 13:40 14.72343 98.95961 34977 ft 459 kts 298°
2026-05-07 13:40 14.73809 98.93043 35327 ft 457 kts 298°
2026-05-07 13:41 14.75265 98.90135 35662 ft 455 kts 298°
2026-05-07 13:41 14.76698 98.87271 35804 ft 455 kts 298°
2026-05-07 13:41 14.78155 98.84362 35829 ft 456 kts 298°
2026-05-07 13:42 14.81077 98.78534 35828 ft 457 kts 298°
2026-05-07 13:42 14.83997 98.72695 35829 ft 457 kts 297°
2026-05-07 13:43 14.86910 98.66858 35832 ft 457 kts 297°
2026-05-07 13:43 14.89821 98.61021 35825 ft 456 kts 298°
2026-05-07 13:44 14.92732 98.55187 35825 ft 457 kts 297°
2026-05-07 13:44 14.95646 98.49344 35822 ft 457 kts 297°
2026-05-07 13:45 14.98563 98.43502 35818 ft 457 kts 298°
2026-05-07 13:45 15.01483 98.37653 35824 ft 457 kts 298°
2026-05-07 13:46 15.04391 98.31802 35819 ft 457 kts 297°
2026-05-07 13:46 15.07299 98.25947 35818 ft 457 kts 297°
2026-05-07 13:47 15.10207 98.20094 35815 ft 457 kts 297°
2026-05-07 13:47 15.13153 98.14263 35819 ft 457 kts 298°
2026-05-07 13:48 15.16137 98.08453 35813 ft 457 kts 298°
2026-05-07 13:48 15.19110 98.02637 35810 ft 457 kts 298°
2026-05-07 13:49 15.22067 97.96807 35807 ft 457 kts 298°
2026-05-07 13:49 15.25026 97.90972 35810 ft 457 kts 298°
2026-05-07 13:50 15.27987 97.85146 35805 ft 457 kts 298°
2026-05-07 13:50 15.30944 97.79313 35804 ft 457 kts 298°
2026-05-07 13:51 15.33892 97.73475 35805 ft 457 kts 298°
2026-05-07 13:51 15.36838 97.67636 35800 ft 457 kts 298°
2026-05-07 13:52 15.39785 97.61799 35803 ft 457 kts 298°
2026-05-07 13:52 15.42233 97.56953 35801 ft 457 kts 298°
2026-05-07 13:53 15.45184 97.51112 35795 ft 457 kts 298°
2026-05-07 13:53 15.48137 97.45275 35796 ft 457 kts 298°
2026-05-07 13:54 15.51085 97.39428 35801 ft 457 kts 298°
2026-05-07 13:54 15.54025 97.33584 35804 ft 457 kts 298°
2026-05-07 13:55 15.56960 97.27748 35810 ft 456 kts 298°
2026-05-07 13:55 15.59894 97.21916 35810 ft 456 kts 298°
2026-05-07 13:56 15.62815 97.16088 35810 ft 455 kts 297°
2026-05-07 13:56 15.65735 97.10263 35812 ft 455 kts 298°
2026-05-07 13:57 15.68667 97.04438 35804 ft 455 kts 298°
2026-05-07 13:57 15.71589 96.98610 35810 ft 455 kts 297°
2026-05-07 13:58 15.74500 96.92778 35813 ft 455 kts 297°
2026-05-07 13:58 15.77422 96.86949 35812 ft 455 kts 298°
2026-05-07 13:59 15.80339 96.81120 35812 ft 455 kts 297°
2026-05-07 13:59 15.83250 96.75287 35811 ft 455 kts 297°
2026-05-07 14:00 15.86160 96.69451 35810 ft 455 kts 297°
2026-05-07 14:00 15.89064 96.63613 35810 ft 455 kts 297°
2026-05-07 14:01 15.91972 96.57777 35814 ft 455 kts 297°
2026-05-07 14:01 15.94881 96.51951 35818 ft 454 kts 297°
2026-05-07 14:02 15.97783 96.46128 35816 ft 453 kts 297°
2026-05-07 14:02 16.00674 96.40313 35812 ft 452 kts 297°
2026-05-07 14:03 16.03554 96.34502 35806 ft 452 kts 297°
2026-05-07 14:03 16.06437 96.28686 35805 ft 453 kts 297°
2026-05-07 14:04 16.09326 96.22873 35816 ft 452 kts 297°
2026-05-07 14:04 16.12209 96.17068 35810 ft 452 kts 297°
2026-05-07 14:05 16.15086 96.11258 35805 ft 452 kts 297°
2026-05-07 14:05 16.17958 96.05439 35808 ft 452 kts 296°
2026-05-07 14:06 16.20809 95.99665 35808 ft 452 kts 296°
2026-05-07 14:06 16.23674 95.93856 35810 ft 451 kts 297°
2026-05-07 14:07 16.26537 95.88048 35798 ft 451 kts 297°
2026-05-07 14:07 16.29408 95.82239 35800 ft 451 kts 296°
2026-05-07 14:08 16.32280 95.76428 35794 ft 451 kts 296°
2026-05-07 14:08 16.35136 95.70620 35798 ft 451 kts 296°
2026-05-07 14:09 16.37989 95.64807 35794 ft 451 kts 296°
2026-05-07 14:09 16.40846 95.58983 35779 ft 452 kts 296°
2026-05-07 14:10 16.43706 95.53149 35777 ft 452 kts 296°
2026-05-07 14:10 16.46566 95.47308 35778 ft 453 kts 296°
2026-05-07 14:11 16.49435 95.41465 35780 ft 453 kts 296°
2026-05-07 14:11 16.52301 95.35620 35783 ft 453 kts 296°
2026-05-07 14:12 16.55157 95.29763 35793 ft 453 kts 295°
2026-05-07 14:12 16.58010 95.23911 35794 ft 453 kts 295°
2026-05-07 14:13 16.60867 95.18067 35791 ft 452 kts 295°
2026-05-07 14:13 16.63720 95.12224 35794 ft 452 kts 295°
2026-05-07 14:14 16.66574 95.06389 35795 ft 451 kts 295°
2026-05-07 14:14 16.69411 95.00554 35800 ft 451 kts 295°
2026-05-07 14:15 16.72238 94.94720 35809 ft 450 kts 295°
2026-05-07 14:15 16.75070 94.88890 35806 ft 450 kts 295°
2026-05-07 14:16 16.77901 94.83072 35815 ft 450 kts 295°
2026-05-07 14:16 16.80729 94.77255 35817 ft 449 kts 294°
2026-05-07 14:17 16.83338 94.71341 35813 ft 448 kts 291°
2026-05-07 14:17 16.85742 94.65345 35814 ft 448 kts 290°
2026-05-07 14:18 16.88144 94.59343 35817 ft 448 kts 291°
2026-05-07 14:18 16.90592 94.53363 35829 ft 448 kts 291°
2026-05-07 14:19 16.93067 94.47404 35822 ft 447 kts 291°
2026-05-07 14:19 16.95535 94.41449 35820 ft 447 kts 291°
2026-05-07 14:20 16.97981 94.35489 35820 ft 446 kts 291°
2026-05-07 14:20 17.00424 94.29528 35826 ft 446 kts 291°
2026-05-07 14:21 17.02863 94.23575 35829 ft 445 kts 291°
2026-05-07 14:21 17.05300 94.17632 35825 ft 445 kts 291°
2026-05-07 14:22 17.07737 94.11693 35823 ft 444 kts 291°
2026-05-07 14:22 17.10172 94.05755 35820 ft 444 kts 291°
2026-05-07 14:23 17.12594 93.99813 35817 ft 444 kts 291°
2026-05-07 14:23 17.15020 93.93867 35816 ft 444 kts 291°
2026-05-07 14:24 17.17431 93.87965 35815 ft 444 kts 291°
2026-05-07 14:24 17.19863 93.82021 35817 ft 445 kts 291°
2026-05-07 14:25 17.22286 93.76072 35822 ft 445 kts 291°
2026-05-07 14:25 17.24700 93.70116 35821 ft 445 kts 291°
2026-05-07 14:26 17.27114 93.64156 35819 ft 445 kts 291°
2026-05-07 14:26 17.29532 93.58196 35820 ft 445 kts 291°
2026-05-07 14:27 17.31956 93.52234 35823 ft 445 kts 291°
2026-05-07 14:27 17.34379 93.46269 35826 ft 445 kts 291°
2026-05-07 14:28 17.36790 93.40302 35827 ft 445 kts 291°
2026-05-07 14:28 17.39199 93.34336 35839 ft 444 kts 290°
2026-05-07 14:29 17.41603 93.28380 35838 ft 444 kts 290°
2026-05-07 14:29 17.44004 93.22432 35836 ft 443 kts 290°
2026-05-07 14:30 17.46402 93.16484 35835 ft 443 kts 290°
2026-05-07 14:30 17.48798 93.10538 35834 ft 443 kts 290°
2026-05-07 14:31 17.51197 93.04594 35839 ft 443 kts 290°
2026-05-07 14:31 17.53588 92.98642 35839 ft 443 kts 290°
2026-05-07 14:32 17.55975 92.92689 35837 ft 443 kts 290°
2026-05-07 14:32 17.58359 92.86733 35837 ft 443 kts 290°
2026-05-07 14:33 17.60739 92.80776 35840 ft 443 kts 290°
2026-05-07 14:33 17.63123 92.74824 35839 ft 443 kts 290°
2026-05-07 14:34 17.65504 92.68874 35840 ft 443 kts 290°
2026-05-07 14:34 17.67891 92.62924 35843 ft 442 kts 290°
2026-05-07 14:35 17.70269 92.56973 35841 ft 443 kts 290°
2026-05-07 14:35 17.72246 92.52025 35842 ft 443 kts 290°
2026-05-07 14:36 17.74611 92.46068 35849 ft 442 kts 290°
2026-05-07 14:36 17.76976 92.40122 35848 ft 441 kts 290°
2026-05-07 14:37 17.79337 92.34180 35848 ft 441 kts 290°
2026-05-07 14:37 17.82870 92.25269 35849 ft 441 kts 290°
2026-05-07 14:38 17.85225 92.19335 35847 ft 440 kts 290°
2026-05-07 14:38 17.87581 92.13403 35847 ft 440 kts 290°
2026-05-07 14:39 17.89929 92.07473 35842 ft 440 kts 290°
2026-05-07 14:39 17.92274 92.01540 35842 ft 440 kts 290°
2026-05-07 14:40 17.94609 91.95604 35843 ft 440 kts 289°
2026-05-07 14:40 17.96906 91.89651 35842 ft 440 kts 289°
2026-05-07 14:41 17.99203 91.83696 35843 ft 440 kts 289°
2026-05-07 14:41 18.01502 91.77737 35844 ft 440 kts 289°
2026-05-07 14:42 18.03798 91.71778 35846 ft 440 kts 289°
2026-05-07 14:42 18.06099 91.65820 35847 ft 440 kts 289°
2026-05-07 14:43 18.08398 91.59864 35852 ft 440 kts 289°
2026-05-07 14:43 18.10695 91.53909 35859 ft 440 kts 289°
2026-05-07 14:44 18.12979 91.47950 35858 ft 439 kts 289°
2026-05-07 14:44 18.15265 91.41995 35858 ft 439 kts 289°
2026-05-07 14:45 18.17534 91.36087 35857 ft 438 kts 289°
2026-05-07 14:45 18.19815 91.30146 35854 ft 438 kts 289°
2026-05-07 14:46 18.22087 91.24200 35854 ft 438 kts 289°
2026-05-07 14:46 18.24360 91.18251 35858 ft 438 kts 289°
2026-05-07 14:47 18.26633 91.12307 35863 ft 438 kts 289°
2026-05-07 14:47 18.28905 91.06362 35859 ft 438 kts 289°
2026-05-07 14:48 18.31169 91.00415 35861 ft 438 kts 289°
2026-05-07 14:48 18.33437 90.94464 35860 ft 438 kts 289°
2026-05-07 14:49 18.35700 90.88510 35859 ft 438 kts 289°
2026-05-07 14:49 18.37964 90.82565 35859 ft 438 kts 289°
2026-05-07 14:50 18.40222 90.76615 35858 ft 437 kts 288°
2026-05-07 14:50 18.42476 90.70663 35861 ft 437 kts 288°
2026-05-07 14:51 18.44732 90.64713 35867 ft 437 kts 288°
2026-05-07 14:51 18.46990 90.58768 35868 ft 437 kts 288°
2026-05-07 14:52 18.49232 90.52824 35867 ft 436 kts 288°
2026-05-07 14:52 18.51480 90.46884 35865 ft 436 kts 288°
2026-05-07 14:53 18.53718 90.40943 35870 ft 436 kts 288°
2026-05-07 14:53 18.55952 90.35002 35869 ft 436 kts 288°
2026-05-07 14:54 18.58171 90.29103 35868 ft 436 kts 288°
2026-05-07 14:54 18.60400 90.23165 35867 ft 436 kts 288°
2026-05-07 14:55 18.62625 90.17226 35863 ft 436 kts 288°
2026-05-07 14:55 18.64858 90.11292 35862 ft 436 kts 288°
2026-05-07 14:56 18.67087 90.05353 35870 ft 436 kts 288°
2026-05-07 14:56 18.69318 89.99413 35870 ft 436 kts 288°
2026-05-07 14:57 18.71536 89.93465 35858 ft 436 kts 288°
2026-05-07 14:57 18.73749 89.87516 35866 ft 436 kts 288°
2026-05-07 14:58 18.75971 89.81569 35865 ft 436 kts 288°
2026-05-07 14:58 18.78189 89.75619 35862 ft 436 kts 288°
2026-05-07 14:59 18.80404 89.69672 35872 ft 436 kts 288°
2026-05-07 14:59 18.82623 89.63721 35862 ft 436 kts 288°
2026-05-07 15:00 18.84832 89.57766 35861 ft 435 kts 288°
2026-05-07 15:00 18.87027 89.51811 35861 ft 435 kts 288°
2026-05-07 15:01 18.89236 89.45860 35861 ft 435 kts 288°
2026-05-07 15:01 18.91449 89.39909 35863 ft 435 kts 288°
2026-05-07 15:02 18.93654 89.33957 35858 ft 435 kts 288°
2026-05-07 15:02 18.95851 89.28002 35862 ft 435 kts 288°
2026-05-07 15:03 18.98051 89.22049 35862 ft 435 kts 288°
2026-05-07 15:03 19.00226 89.16131 35859 ft 435 kts 288°
2026-05-07 15:04 19.02411 89.10165 35862 ft 435 kts 288°
2026-05-07 15:04 19.04602 89.04202 35863 ft 435 kts 288°
2026-05-07 15:05 19.06794 88.98245 35857 ft 435 kts 288°
2026-05-07 15:05 19.08983 88.92278 35858 ft 435 kts 288°
2026-05-07 15:06 19.11172 88.86317 35858 ft 435 kts 288°
2026-05-07 15:06 19.13353 88.80353 35870 ft 434 kts 287°
2026-05-07 15:07 19.15523 88.74407 35862 ft 433 kts 288°
2026-05-07 15:07 19.17696 88.68468 35862 ft 433 kts 288°
2026-05-07 15:08 19.19885 88.62542 35855 ft 432 kts 288°
2026-05-07 15:08 19.22151 88.56648 35853 ft 432 kts 289°
2026-05-07 15:09 19.24417 88.50757 35855 ft 432 kts 288°
2026-05-07 15:09 19.26666 88.44856 35852 ft 432 kts 288°
2026-05-07 15:10 19.28903 88.38957 35853 ft 432 kts 288°
2026-05-07 15:10 19.31141 88.33055 35852 ft 432 kts 288°
2026-05-07 15:11 19.33381 88.27151 35851 ft 432 kts 288°
2026-05-07 15:11 19.35617 88.21243 35850 ft 432 kts 288°
2026-05-07 15:12 19.37796 88.15426 35818 ft 412 kts 287°
2026-05-07 15:12 19.39821 88.09921 35838 ft 397 kts 288°
2026-05-07 15:13 19.41834 88.04560 35838 ft 386 kts 288°
2026-05-07 15:13 19.42826 88.01969 35836 ft 373 kts 288°
2026-05-07 15:13 19.43792 87.99464 35838 ft 364 kts 288°
2026-05-07 15:14 19.45646 87.94557 35844 ft 354 kts 287°
2026-05-07 15:14 19.47442 87.89769 35837 ft 345 kts 287°
2026-05-07 15:15 19.49186 87.85120 35833 ft 330 kts 287°
2026-05-07 15:15 19.50032 87.82965 35814 ft 306 kts 288°
2026-05-07 15:15 19.50864 87.80967 35736 ft 287 kts 287°
2026-05-07 15:16 19.51634 87.79063 35471 ft 277 kts 287°
2026-05-07 15:16 19.52361 87.77187 34929 ft 277 kts 285°
2026-05-07 15:16 19.53058 87.75228 34080 ft 290 kts 284°
2026-05-07 15:16 19.53751 87.73210 33487 ft 291 kts 283°
2026-05-07 15:17 19.54345 87.71180 33007 ft 286 kts 280°
2026-05-07 15:17 19.54884 87.69174 32596 ft 280 kts 279°
2026-05-07 15:17 19.55309 87.67188 32214 ft 272 kts 272°
2026-05-07 15:17 19.55494 87.65226 31825 ft 266 kts 272°
2026-05-07 15:18 19.55743 87.63306 31424 ft 262 kts 274°
2026-05-07 15:18 19.56084 87.61381 30756 ft 271 kts 277°
2026-05-07 15:18 19.56534 87.59398 29978 ft 283 kts 279°
2026-05-07 15:18 19.57027 87.57325 28954 ft 298 kts 280°
2026-05-07 15:19 19.57589 87.55159 28008 ft 309 kts 280°
2026-05-07 15:19 19.58136 87.52956 27460 ft 307 kts 280°
2026-05-07 15:19 19.58666 87.50807 27184 ft 296 kts 279°
2026-05-07 15:19 19.59076 87.48719 26926 ft 283 kts 272°
2026-05-07 15:20 19.59296 87.46701 26750 ft 269 kts 273°
2026-05-07 15:20 19.59543 87.44776 26531 ft 258 kts 271°
2026-05-07 15:20 19.59748 87.42924 26289 ft 248 kts 272°
2026-05-07 15:20 19.60028 87.41172 26135 ft 236 kts 278°
2026-05-07 15:21 19.60508 87.39513 25752 ft 236 kts 282°
2026-05-07 15:21 19.60868 87.38429 25464 ft 235 kts 282°
2026-05-07 15:21 19.61622 87.36209 24569 ft 250 kts 284°
2026-05-07 15:21 19.62218 87.34446 23982 ft 256 kts 281°
2026-05-07 15:22 19.62632 87.32622 23528 ft 253 kts 272°
2026-05-07 15:22 19.62704 87.31376 23212 ft 249 kts 263°
2026-05-07 15:22 19.62389 87.29599 22725 ft 244 kts 253°
2026-05-07 15:22 19.61945 87.27852 22125 ft 247 kts 250°
2026-05-07 15:23 19.61319 87.26149 21565 ft 248 kts 245°
2026-05-07 15:23 19.60398 87.23952 21024 ft 244 kts 243°
2026-05-07 15:23 19.59851 87.22891 20760 ft 242 kts 238°
2026-05-07 15:23 19.59002 87.21351 20228 ft 243 kts 241°
2026-05-07 15:24 19.58119 87.19817 19770 ft 244 kts 234°
2026-05-07 15:24 19.57082 87.18394 19324 ft 244 kts 231°
2026-05-07 15:24 19.56007 87.17030 18853 ft 245 kts 232°
2026-05-07 15:24 19.54930 87.15629 18391 ft 245 kts 232°
2026-05-07 15:25 19.53812 87.14226 17912 ft 246 kts 231°
2026-05-07 15:25 19.52671 87.12911 17425 ft 246 kts 226°
2026-05-07 15:25 19.51435 87.11667 16973 ft 244 kts 225°
2026-05-07 15:25 19.50292 87.10592 16592 ft 243 kts 220°
2026-05-07 15:26 19.48936 87.09538 16153 ft 240 kts 222°
2026-05-07 15:26 19.47718 87.08350 15765 ft 236 kts 227°
2026-05-07 15:26 19.46569 87.07124 15382 ft 233 kts 226°
2026-05-07 15:26 19.45339 87.06018 15000 ft 232 kts 218°
2026-05-07 15:27 19.44028 87.05029 14615 ft 231 kts 216°
2026-05-07 15:27 19.42637 87.04179 14231 ft 231 kts 207°
2026-05-07 15:27 19.41113 87.03596 13840 ft 234 kts 202°
2026-05-07 15:27 19.39550 87.03062 13392 ft 238 kts 196°
2026-05-07 15:28 19.37915 87.02844 12962 ft 233 kts 190°
2026-05-07 15:28 19.36377 87.02508 12593 ft 222 kts 198°
2026-05-07 15:28 19.34866 87.02163 12077 ft 223 kts 186°
2026-05-07 15:28 19.33284 87.02178 11370 ft 234 kts 169°
2026-05-07 15:29 19.31695 87.02539 10838 ft 233 kts 172°
2026-05-07 15:29 19.30093 87.02853 10270 ft 236 kts 168°
2026-05-07 15:29 19.28478 87.03295 9611 ft 246 kts 164°
2026-05-07 15:29 19.26773 87.03789 8883 ft 262 kts 168°
2026-05-07 15:30 19.24937 87.04197 8167 ft 277 kts 170°
2026-05-07 15:30 19.23006 87.04535 7607 ft 284 kts 172°
2026-05-07 15:30 19.21038 87.04886 6986 ft 290 kts 169°
2026-05-07 15:30 19.19050 87.05295 6263 ft 291 kts 168°
2026-05-07 15:31 19.17043 87.05623 5499 ft 296 kts 177°
2026-05-07 15:31 19.14982 87.05529 5750 ft 292 kts 196°
2026-05-07 15:31 19.13251 87.04543 6117 ft 282 kts 224°
2026-05-07 15:31 19.12215 87.02822 6010 ft 280 kts 257°
2026-05-07 15:32 19.12157 87.00866 6288 ft 264 kts 283°
2026-05-07 15:32 19.12724 86.99002 7043 ft 270 kts 293°
2026-05-07 15:32 19.13635 86.97253 7830 ft 274 kts 303°
2026-05-07 15:32 19.14743 86.95596 8672 ft 277 kts 304°
2026-05-07 15:33 19.15783 86.93875 9543 ft 277 kts 302°
2026-05-07 15:33 19.17006 86.92333 10541 ft 271 kts 314°
2026-05-07 15:33 19.18375 86.91004 11511 ft 264 kts 315°
2026-05-07 15:33 19.19677 86.89677 12470 ft 256 kts 309°
2026-05-07 15:34 19.20719 86.88197 13433 ft 246 kts 295°
2026-05-07 15:34 19.21681 86.86705 14194 ft 248 kts 311°
2026-05-07 15:34 19.23036 86.85517 14626 ft 264 kts 321°
2026-05-07 15:34 19.24696 86.84431 14555 ft 300 kts 326°
2026-05-07 15:35 19.26608 86.83252 14339 ft 335 kts 324°
2026-05-07 15:35 19.28565 86.81727 14141 ft 364 kts 317°
2026-05-07 15:35 19.30599 86.80001 13973 ft 377 kts 320°
2026-05-07 15:35 19.32651 86.78366 13812 ft 361 kts 321°
2026-05-07 15:36 19.34678 86.76900 13761 ft 346 kts 324°
2026-05-07 15:36 19.36751 86.75522 13822 ft 361 kts 323°
2026-05-07 15:36 19.38929 86.74054 13930 ft 381 kts 327°
2026-05-07 15:36 19.41258 86.72591 14080 ft 397 kts 323°
2026-05-07 15:37 19.43650 86.71019 14237 ft 412 kts 326°
2026-05-07 15:37 19.46241 86.69567 14296 ft 431 kts 332°
2026-05-07 15:37 19.49056 86.68351 14544 ft 441 kts 336°
2026-05-07 15:37 19.51953 86.67232 14976 ft 445 kts 336°
2026-05-07 15:38 19.54885 86.66159 15491 ft 447 kts 338°
2026-05-07 15:38 19.57820 86.65080 16058 ft 445 kts 333°
2026-05-07 15:38 19.60515 86.63526 16655 ft 439 kts 326°
2026-05-07 15:38 19.63244 86.62088 17425 ft 438 kts 333°
2026-05-07 15:39 19.66205 86.61256 18049 ft 446 kts 348°
2026-05-07 15:39 19.69308 86.61015 18594 ft 447 kts 352°
2026-05-07 15:39 19.72346 86.60659 19146 ft 442 kts 344°
2026-05-07 15:39 19.75195 86.59584 19720 ft 429 kts 324°
2026-05-07 15:40 19.77890 86.58209 20277 ft 435 kts 335°
2026-05-07 15:40 19.80774 86.57219 20854 ft 435 kts 336°
2026-05-07 15:40 19.83642 86.56207 21456 ft 434 kts 335°
2026-05-07 15:40 19.86429 86.55004 21817 ft 435 kts 328°
2026-05-07 15:41 19.89008 86.53269 21702 ft 444 kts 315°
2026-05-07 15:41 19.91332 86.51198 21609 ft 425 kts 323°
2026-05-07 15:41 19.94045 86.49935 20929 ft 427 kts 334°
2026-05-07 15:41 19.96818 86.48779 20059 ft 428 kts 331°
2026-05-07 15:42 19.99415 86.47251 18881 ft 429 kts 321°
2026-05-07 15:42 20.01616 86.45195 17150 ft 413 kts 308°
2026-05-07 15:42 20.03423 86.42911 15649 ft 394 kts 304°
2026-05-07 15:42 20.04924 86.40582 14595 ft 368 kts 300°
2026-05-07 15:43 20.06260 86.38376 13826 ft 342 kts 303°
2026-05-07 15:43 20.07619 86.36410 13156 ft 319 kts 304°
2026-05-07 15:43 20.08863 86.34512 12152 ft 309 kts 298°
2026-05-07 15:43 20.09789 86.32472 11124 ft 304 kts 290°
2026-05-07 15:44 20.10423 86.30370 10404 ft 292 kts 285°
2026-05-07 15:44 20.10878 86.28356 10111 ft 267 kts 280°
2026-05-07 15:44 20.11131 86.26488 9883 ft 244 kts 275°
2026-05-07 15:44 20.11251 86.24719 9763 ft 247 kts 274°
2026-05-07 15:45 20.11447 86.22879 9693 ft 247 kts 280°
2026-05-07 15:45 20.11793 86.21119 9526 ft 241 kts 282°
2026-05-07 15:45 20.12130 86.19328 9088 ft 255 kts 280°
2026-05-07 15:45 20.12386 86.17392 8599 ft 273 kts 277°
2026-05-07 15:46 20.12865 86.13294 7745 ft 284 kts 280°
2026-05-07 15:46 20.13216 86.11227 7043 ft 283 kts 280°
2026-05-07 15:46 20.13494 86.09172 6484 ft 277 kts 279°
2026-05-07 15:47 20.13843 86.07165 5811 ft 277 kts 283°
2026-05-07 15:47 20.14183 86.05131 5073 ft 280 kts 279°
2026-05-07 15:47 20.14416 86.03109 4714 ft 275 kts 277°
2026-05-07 15:47 20.14657 86.01064 4503 ft 275 kts 277°
2026-05-07 15:48 20.14859 85.99150 4388 ft 246 kts 277°
2026-05-07 15:48 20.15077 85.97417 3979 ft 231 kts 278°
2026-05-07 15:48 20.15299 85.95741 3444 ft 227 kts 275°
2026-05-07 15:48 20.15503 85.94071 3155 ft 227 kts 278°
2026-05-07 15:49 20.15832 85.92450 2958 ft 221 kts 283°
2026-05-07 15:49 20.16296 85.90935 2901 ft 207 kts 291°
2026-05-07 15:49 20.16934 85.89639 2788 ft 194 kts 300°
2026-05-07 15:49 20.17701 85.88466 2461 ft 194 kts 304°
2026-05-07 15:50 20.18530 85.87353 2159 ft 194 kts 308°
2026-05-07 15:50 20.19464 85.86271 1995 ft 192 kts 313°
2026-05-07 15:50 20.20452 85.85318 1704 ft 190 kts 317°
2026-05-07 15:50 20.21450 85.84472 1360 ft 179 kts 317°
2026-05-07 15:51 20.22364 85.83582 827 ft 180 kts 310°
2026-05-07 15:51 20.23264 85.82645 462 ft 179 kts 320°
2026-05-07 15:51 20.24259 85.81950 220 ft 158 kts 317°
2026-05-07 15:51 20.25040 85.81324 169 ft 125 kts 319°
2026-05-07 15:52 20.25119 85.81263 157 ft 0 kts 321°